CAPE
0 0 0 0 0 0 0 0 0 0 0 0 0 0 0 0 0 0 0 0 0 0 0 0 0 0 0 0 0 0 0 0 0 0 0 0 0 0 0 0 0 0 5 10
0 0 0 0 0 0 0 0 0 0 0 0 0 0 0 0 0 0 0 0 0 0 0 0 0 0 0 0 0 0 0 0 0 0 0 0 0 0 0 0 0 1 9 19
0 0 0 0 0 0 0 0 0 0 0 0 0 0 0 0 0 0 0 0 0 0 0 0 0 0 0 0 0 0 0 0 0 0 0 0 0 0 0 0 2 4 9 15
0 0 0 0 0 0 0 0 0 0 0 0 0 0 0 0 0 0 0 0 0 0 0 0 0 0 0 0 0 0 0 0 0 0 0 0 0 0 0 0 1 3 7 17
0 0 0 0 0 0 0 0 0 0 0 0 0 0 0 0 0 0 0 0 0 0 0 0 0 0 0 0 0 0 0 0 0 0 0 0 0 0 0 0 2 4 10 5
0 0 0 0 0 0 0 0 0 0 0 0 0 0 0 0 0 0 0 0 0 0 0 0 0 0 0 0 0 0 0 0 0 0 0 0 0 0 0 0 2 2 3 0
0 0 0 0 0 0 0 0 0 0 0 0 0 0 0 0 0 0 0 0 0 0 0 0 0 0 0 0 0 0 0 0 0 0 0 0 0 0 0 0 3 6 0 0
0 0 0 0 0 0 0 0 0 0 0 0 0 0 0 0 0 0 0 0 0 0 0 0 0 0 0 0 0 0 0 0 0 0 0 0 0 0 0 1 8 8 1 1
0 0 0 0 0 0 0 0 0 0 0 0 0 0 0 0 0 0 0 0 0 0 0 0 0 0 0 0 0 0 0 0 0 0 0 0 0 0 0 4 7 3 7 1
0 0 0 0 0 0 0 0 0 0 0 0 0 0 0 3 0 0 0 0 0 0 0 0 0 0 0 0 0 0 0 0 0 0 0 0 0 0 1 4 3 3 4 3
0 0 0 0 0 0 0 0 0 0 0 0 0 0 0 0 0 0 0 0 0 0 1 0 0 0 0 0 0 0 0 0 0 0 0 0 0 0 0 1 2 2 4 8
0 0 0 0 0 0 0 0 0 0 0 0 0 0 0 0 0 0 1 1 0 0 0 0 0 0 0 0 0 0 0 0 0 0 0 0 1 0 1 2 0 0 0 0
0 0 0 0 0 0 0 0 0 0 0 0 0 0 0 3 2 1 1 0 0 0 0 0 0 0 0 0 0 0 0 0 0 0 1 2 3 2 0 0 0 0 0 0
0 0 2 0 0 0 0 0 0 0 0 1 1 1 1 1 1 0 0 0 0 0 0 0 0 0 0 0 0 0 0 0 0 1 3 7 10 10 5 1 1 1 1 0
0 0 0 0 0 0 0 1 1 2 2 2 1 0 0 0 0 0 0 0 0 0 0 0 0 0 0 0 0 0 0 0 0 0 2 2 0 1 2 4 6 5 2 1
0 0 0 0 1 3 2 2 1 0 0 0 0 0 1 1 0 0 0 0 0 0 0 0 0 0 0 0 0 0 0 0 0 1 0 1 2 4 6 10 7 5 9 1
0 0 0 4 2 1 1 0 0 4 1 7 1 0 0 0 0 0 0 0 0 0 0 0 0 0 0 0 0 0 5 5 0 0 0 0 1 2 1 3 7 5 1 4
0 0 0 1 1 1 1 6 1 0 0 0 0 0 0 0 0 0 0 0 0 0 0 0 0 0 0 0 0 1 3 2 0 1 0 1 3 7 5 4 4 5 1 2
1 2 0 0 1 0 0 0 0 0 0 0 0 0 0 0 0 0 0 0 0 0 0 0 0 0 0 0 0 1 2 1 0 2 0 2 2 1 2 1 0 2 2 3
0 0 0 0 0 0 0 0 0 0 0 0 0 0 0 0 0 0 0 0 0 2 1 1 1 5 4 5 0 1 1 0 0 4 2 1 0 0 1 1 1 0 0 0
0 0 0 0 0 0 0 0 0 0 0 0 0 0 0 0 0 0 0 0 0 0 0 0 0 0 3 2 2 3 2 2 0 1 1 0 0 0 1 0 0 0 0 0
0 0 0 0 0 0 0 0 0 0 0 0 0 0 0 0 0 0 0 0 1 0 3 4 5 7 7 4 4 2 1 1 1 0 1 1 2 1 0 0 0 0 0 0
0 0 0 0 0 0 0 0 0 0 0 0 0 0 0 0 0 0 0 1 0 6 1 10 4 1 1 6 5 4 3 0 1 0 0 0 0 0 1 2 1 1 0 0
0 1 1 1 0 0 0 0 0 0 0 0 0 0 0 0 0 0 2 3 1 0 4 0 0 0 2 0 0 1 1 0 1 0 0 0 0 0 0 1 0 1 0 0
2 1 1 0 0 0 0 0 0 0 0 0 0 0 0 0 0 1 4 4 2 2 2 1 1 0 1 2 1 0 0 0 0 0 0 0 0 0 0 1 0 0 0 0
0 0 0 0 0 0 0 0 0 0 0 0 0 0 1 3 4 3 3 4 2 2 2 1 1 1 1 1 1 1 0 1 0 0 0 0 0 0 0 0 0 0 0 0
0 0 0 0 0 0 0 0 0 0 0 0 0 1 1 2 2 2 2 3 1 2 2 4 4 2 1 1 1 1 1 1 0 0 0 0 0 0 0 0 0 0 0 0
CIN
0 0 0 0 0 0 0 0 0 0 0 0 0 0 0 0 0 0 0 0 0 0 0 0 0 0 0 0 0 0 0 0 0 0 0 0 0 0 0 0 0 -2 -2 -2
0 0 0 0 0 0 0 0 0 0 0 0 0 0 0 0 0 0 0 0 0 0 0 0 0 0 0 0 0 0 0 0 0 0 0 0 0 0 0 0 -1 -1 -2 -1
0 0 0 0 0 0 0 0 0 0 0 0 0 0 0 0 0 0 0 0 0 0 0 0 0 0 0 0 0 0 0 0 0 0 0 0 0 0 0 0 -2 -2 -2 -1
0 0 0 0 0 0 0 0 0 0 0 0 0 0 0 0 0 0 0 0 0 0 0 0 0 0 0 0 0 0 0 0 0 0 0 0 0 0 0 -1 -2 -2 -2 -1
0 0 0 0 0 0 0 0 0 0 0 0 0 0 0 0 0 0 0 0 0 0 0 0 0 0 0 0 0 0 0 0 0 0 0 0 0 0 0 0 -1 -3 -2 -2
0 0 0 0 0 0 0 0 0 0 0 0 0 0 0 0 0 0 0 0 0 0 0 0 0 0 0 0 0 0 0 0 0 0 0 0 0 0 0 0 -2 -3 -3 0
0 0 0 0 0 0 0 0 0 0 0 0 0 0 0 0 0 0 0 0 0 0 0 0 0 0 0 0 0 0 0 0 0 0 0 0 0 0 0 -1 -2 -1 0 0
0 0 0 0 0 0 0 0 0 0 0 0 0 0 0 0 0 0 0 0 0 0 0 0 0 0 0 0 0 0 0 0 0 0 0 0 0 0 0 -2 -2 -2 -9 -1
0 0 0 0 0 0 0 0 0 0 0 0 0 0 0 0 0 0 0 0 0 0 0 0 0 0 0 0 0 0 0 0 0 0 0 0 0 0 0 -2 -2 -2 -4 -6
0 0 0 0 0 0 0 0 0 0 0 0 0 0 0 -2 0 0 0 0 0 0 0 0 0 0 0 0 0 0 0 0 0 0 0 0 0 0 -3 -2 -1 -3 -2 -2
0 0 0 0 0 0 0 0 0 0 0 0 0 0 -1 0 0 0 0 0 0 0 0 0 0 0 0 0 0 0 0 0 0 0 0 0 0 0 -2 -1 -1 -1 -2 -2
0 0 0 0 0 0 0 0 0 0 0 0 0 0 0 0 0 0 0 0 0 0 0 0 0 0 0 0 0 0 0 0 0 0 0 -1 -1 -2 -2 -3 0 0 0 0
0 0 0 0 0 0 0 0 0 0 0 0 0 0 0 0 0 0 0 0 0 0 0 0 0 0 0 0 0 0 0 0 0 0 -2 -2 -2 0 0 0 0 0 0 0
0 0 -2 0 0 0 0 0 0 0 0 0 0 0 0 0 0 0 0 0 0 0 0 0 0 0 0 0 0 0 0 0 0 -1 -1 -1 -1 0 -1 -3 -2 -2 0 0
0 0 0 0 0 0 0 0 0 0 0 0 0 0 0 0 0 0 0 0 0 0 0 0 0 0 0 0 0 0 0 0 0 -1 -3 -2 -2 -2 0 -1 0 -1 -1 -3
0 0 0 0 0 0 0 0 0 0 0 0 0 0 -1 -1 0 0 0 0 0 0 0 0 0 0 0 0 0 0 0 -2 0 -4 -3 -1 -3 0 0 0 0 0 0 -9
0 0 0 0 0 0 0 0 0 -1 0 0 -1 0 0 0 0 0 0 0 0 0 0 0 0 0 0 0 0 0 -1 -3 0 0 0 0 -1 -2 -4 0 0 0 -4 -3
0 0 0 0 -1 0 0 0 0 0 0 0 0 0 0 0 0 0 0 0 0 0 0 0 0 0 0 0 0 0 -1 -3 0 0 -2 -4 -1 0 -1 -1 -1 0 -2 -3
0 0 -1 0 -2 0 0 0 0 0 0 0 0 0 0 0 0 0 0 0 0 0 0 0 0 0 0 0 0 0 0 -16 0 0 -5 -6 -1 -5 -2 0 -4 -4 -2 0
-1 0 0 0 0 0 0 0 0 0 0 0 0 0 0 0 0 0 0 0 0 -1 0 0 0 0 0 0 0 -1 0 0 0 -1 -1 -1 0 0 0 0 0 -7 0 0
0 0 0 0 0 0 0 0 0 0 0 0 0 0 0 0 0 0 0 0 0 -3 0 0 0 0 0 -2 -2 -4 -26 -5 -1 0 0 0 0 0 0 0 0 0 0 0
0 0 0 0 0 0 0 0 0 0 0 0 0 0 0 0 0 0 0 0 -2 0 0 0 0 0 0 -2 0 0 0 0 -3 0 0 0 0 0 0 0 0 0 0 0
0 0 0 0 0 0 0 0 0 0 0 0 0 0 0 0 0 0 0 -2 -1 -1 -1 0 0 0 0 0 0 0 0 0 -4 0 0 0 0 0 -1 0 0 0 0 0
0 0 0 0 0 0 0 0 0 0 0 0 0 0 0 0 0 0 -1 -1 -1 0 0 0 0 0 0 0 0 0 0 0 0 0 0 0 0 0 0 -1 -1 0 0 0
0 0 0 0 0 0 0 0 0 0 0 0 0 0 0 0 -1 -1 -1 -1 -1 -1 -1 -1 0 0 0 0 -1 -1 0 0 0 0 0 0 0 0 -1 -1 0 -1 -1 0
0 0 0 0 0 0 0 0 0 0 0 0 0 0 -1 -1 -1 -1 -1 -1 -1 -1 -1 -1 -1 0 0 -1 0 0 -1 0 0 0 0 0 0 -2 -2 -1 0 -1 -1 -1
0 0 0 0 0 0 0 0 0 0 0 0 0 -2 -2 -2 -2 -2 -3 -1 -2 -1 -1 -1 -1 -1 -1 -1 -1 -1 -1 -1 0 -1 -1 -1 -1 -1 -1 0 0 0 0 0
Wind_Speed
33 27 25 27 28 14 19 15 11 9 12 20 22 20 16 14 14 11 11 12 12 13 12 12 12 11 11 13 15 13 15 17 19 21 23 25 27 27 28 30 30 30 31 29
27 28 29 32 28 21 11 9 9 7 9 28 26 19 19 18 17 16 15 14 14 14 13 13 12 12 12 15 13 14 16 18 20 23 25 27 26 27 28 29 31 31 30 28
26 22 26 32 19 10 6 6 11 14 19 28 22 21 22 20 19 19 18 16 14 14 13 13 13 12 13 13 12 14 17 19 22 23 25 26 27 27 28 29 31 31 31 28
23 20 27 24 18 19 17 16 15 17 17 22 21 25 22 22 21 19 18 17 16 14 14 13 12 11 12 12 13 16 19 22 22 25 27 27 28 28 29 29 30 30 28 26
20 22 28 28 14 18 18 21 23 22 22 21 21 23 23 17 18 19 20 19 17 14 12 11 11 10 12 13 14 17 20 21 24 26 28 29 31 30 29 29 30 29 27 25
18 22 24 19 18 17 17 23 20 21 21 20 19 26 28 21 20 22 21 18 15 12 11 11 11 11 13 13 17 18 19 23 26 28 30 31 31 32 31 29 28 27 26 22
18 21 23 20 18 16 21 22 22 24 25 23 23 26 26 27 28 24 22 18 14 13 13 12 13 13 15 18 21 20 22 23 26 28 30 31 32 32 31 29 28 26 24 21
18 22 26 15 16 19 20 21 25 26 25 24 26 27 27 28 29 26 22 19 17 16 15 15 16 17 20 19 20 23 27 27 27 28 30 31 33 32 29 26 26 24 22 20
17 22 16 12 21 20 22 25 26 26 26 26 26 28 29 27 28 26 22 19 18 16 16 16 18 19 20 21 20 24 26 27 28 29 32 33 33 31 28 26 25 24 21 18
22 18 20 18 22 22 22 23 24 26 26 27 28 29 29 27 25 23 20 20 17 18 19 20 19 17 19 21 22 24 26 29 30 30 32 33 29 28 26 25 25 22 20 16
22 23 21 22 20 21 23 24 25 26 27 26 29 30 29 25 24 22 19 21 20 20 21 20 20 21 21 21 23 25 27 28 30 31 32 31 29 27 26 24 22 21 16 14
26 25 24 24 23 25 25 25 26 26 26 28 30 29 25 24 22 21 20 20 21 21 21 21 21 21 22 22 24 26 27 28 29 32 32 31 30 28 24 22 19 18 15 15
23 26 25 23 22 25 24 24 24 25 25 27 27 25 24 23 21 21 21 21 21 21 20 20 20 21 22 24 25 25 26 29 31 31 31 31 29 28 29 25 19 16 14 13
24 25 20 24 22 22 22 22 23 24 25 24 23 23 22 21 21 21 21 20 19 20 21 22 24 25 24 24 24 26 28 29 30 30 29 28 28 28 26 26 25 21 16 12
23 22 20 19 20 21 21 21 22 23 23 23 23 22 21 22 22 22 21 22 23 24 24 25 26 26 25 25 27 28 29 29 29 30 29 29 28 28 25 24 22 20 19 17
21 21 20 20 20 19 19 20 21 21 22 22 23 23 24 25 25 25 24 24 25 27 28 29 28 27 28 28 28 29 29 28 27 28 28 28 27 27 26 24 23 22 18 15
20 21 18 18 17 17 18 19 20 22 24 25 26 27 27 27 27 27 27 27 26 27 28 29 30 30 29 27 27 27 29 28 27 27 28 28 27 27 26 25 25 23 20 15
17 16 14 14 15 16 18 21 23 24 25 26 26 27 28 28 27 27 28 29 29 30 30 29 29 29 30 29 28 29 30 29 29 29 29 30 29 29 28 27 26 25 23 18
13 13 14 16 18 19 20 22 23 23 25 26 27 27 27 27 28 29 30 31 33 33 32 35 35 35 35 33 31 31 31 30 30 29 29 30 30 29 28 26 26 24 23 21
13 15 16 18 19 20 21 22 23 23 25 26 27 28 29 30 31 32 33 33 32 33 37 39 41 40 38 36 35 32 30 29 28 28 28 30 31 30 26 25 25 23 22 22
15 16 17 18 19 20 21 22 23 24 25 27 29 31 32 32 33 35 36 37 37 39 43 44 43 42 41 41 41 38 32 29 28 28 29 30 32 34 28 24 26 25 24 24
16 17 17 17 19 20 22 23 24 25 27 29 30 32 33 34 35 35 35 37 40 44 44 44 44 43 43 43 41 38 35 34 32 28 27 28 32 33 33 31 27 27 29 28
16 16 17 19 20 21 22 24 25 27 29 30 32 34 35 36 37 40 42 42 45 46 47 46 47 48 47 41 38 36 33 31 28 23 27 29 30 32 32 32 33 33 33 32
16 17 18 19 20 22 24 27 27 28 29 30 32 34 36 39 39 38 41 43 45 46 44 45 47 46 42 39 37 36 33 31 29 30 29 28 29 31 32 33 33 33 32 32
16 18 19 21 23 25 26 28 28 30 32 33 34 35 37 38 39 42 41 42 43 43 42 42 42 42 39 37 36 34 32 31 30 29 28 28 29 31 32 33 33 34 34 33
18 20 21 23 24 26 27 29 31 32 34 36 36 37 38 39 39 39 40 41 41 41 40 40 40 39 38 36 35 34 32 31 30 30 30 30 31 32 33 35 35 35 35 35
20 21 22 23 25 27 29 30 33 35 35 36 38 38 39 39 39 39 39 39 39 39 39 38 37 37 37 36 35 34 33 32 32 32 31 32 33 34 35 36 36 36 36 36
Wind_Direction
242 267 271 266 254 178 195 197 202 328 331 331 329 333 334 333 330 314 299 290 281 281 279 278 277 282 291 305 311 316 322 326 329 332 334 335 336 337 338 340 342 342 343 346
268 264 268 255 225 206 196 208 224 258 293 317 323 329 329 327 325 319 308 299 291 287 282 279 278 281 292 307 310 318 321 324 328 331 332 334 335 336 337 338 341 342 343 346
264 282 277 264 212 210 245 255 305 302 315 322 326 328 326 325 324 321 315 308 299 291 286 285 284 285 298 305 313 318 321 324 327 331 333 334 335 335 335 337 339 340 342 346
279 293 280 296 318 314 311 307 303 307 315 321 324 328 330 328 325 323 321 316 308 302 298 292 292 293 301 308 313 319 323 325 328 331 333 334 334 334 335 337 338 339 341 347
290 292 288 298 325 323 323 320 324 325 327 327 332 332 329 324 330 328 325 321 316 311 305 303 299 296 306 311 315 323 324 324 328 331 332 333 333 334 335 335 336 339 342 347
299 298 301 323 331 339 337 321 340 342 339 337 337 328 331 340 334 330 329 327 323 319 317 312 310 308 312 314 318 321 329 331 327 329 329 330 332 332 333 335 336 339 342 349
303 304 310 320 333 343 322 326 339 338 334 330 327 330 333 332 331 330 329 327 329 325 321 323 326 323 321 327 326 323 332 335 331 330 328 330 331 333 335 336 338 341 343 346
310 309 307 344 347 332 339 337 335 334 333 329 327 327 329 330 330 330 329 330 333 332 334 338 335 334 327 331 333 323 323 331 333 332 331 331 331 334 336 338 339 342 345 346
318 319 338 344 336 338 334 330 329 330 330 329 328 328 328 329 331 333 333 334 335 334 334 337 338 338 333 329 334 327 327 330 332 332 330 331 333 335 338 340 340 341 344 344
320 336 328 330 330 331 333 332 333 333 332 331 330 330 329 330 332 334 337 338 340 338 334 335 338 338 336 333 334 333 328 328 329 333 332 335 339 339 339 339 341 342 342 343
320 323 327 332 333 337 336 335 334 335 334 334 332 330 331 333 334 338 341 343 343 342 339 338 337 335 336 335 334 331 330 331 331 332 333 337 340 342 342 342 343 341 339 341
317 329 327 329 335 334 332 334 335 335 335 336 335 335 338 342 344 343 343 345 345 344 341 338 336 336 336 334 332 330 331 333 334 333 335 337 338 340 343 340 335 336 333 334
320 324 325 328 334 335 335 338 340 341 342 341 344 346 347 346 347 347 348 346 343 342 340 338 335 333 333 331 331 332 331 331 333 333 334 336 338 338 337 340 338 335 327 321
327 326 324 332 331 339 342 346 347 347 348 349 352 353 353 352 352 349 346 346 344 341 338 336 333 331 332 331 331 330 330 330 333 336 337 337 337 336 335 335 333 334 332 319
329 334 335 337 340 340 342 344 347 348 351 353 355 356 356 353 351 349 347 344 341 338 335 333 332 331 332 330 328 328 330 333 336 336 336 335 335 334 331 331 332 330 332 332
328 332 334 335 338 343 348 349 349 351 353 355 354 352 349 348 345 344 343 341 337 335 333 333 332 330 328 326 325 327 328 328 330 333 333 334 334 333 332 329 329 329 324 324
325 326 335 339 345 349 352 356 355 353 351 349 348 346 345 344 342 342 341 340 337 334 332 331 329 329 327 325 324 324 326 327 328 328 327 328 328 328 328 327 326 326 324 315
341 344 352 356 357 357 354 351 350 349 348 347 347 347 346 346 345 344 343 341 338 336 334 334 334 334 331 327 323 322 322 323 324 323 324 323 322 323 323 323 324 323 323 318
5 8 6 359 353 350 350 350 349 350 350 350 349 349 350 348 346 344 342 339 337 335 337 335 333 331 329 327 324 321 319 320 320 321 322 323 323 323 320 319 321 321 322 320
0 357 355 354 353 351 351 351 351 352 353 352 351 350 348 346 344 341 339 336 336 336 335 333 332 330 329 328 325 319 316 316 317 320 322 324 326 324 322 320 320 321 323 321
348 349 350 351 352 354 354 354 354 353 352 352 349 346 344 343 342 340 337 335 334 333 331 330 330 328 327 326 325 323 315 311 313 315 318 321 325 327 322 321 323 322 323 323
344 346 349 351 351 351 352 353 353 351 350 348 348 346 344 342 340 339 338 334 334 332 331 330 329 328 326 325 324 321 317 314 313 313 316 321 325 326 324 325 324 323 321 320
344 346 348 347 347 348 349 349 348 347 346 345 345 344 342 340 339 336 333 335 333 333 332 332 332 332 330 326 325 324 322 319 316 318 321 322 324 325 324 321 316 314 313 312
343 344 345 346 346 344 341 343 343 344 345 344 343 343 341 338 337 337 336 335 336 336 337 336 337 337 337 337 336 334 333 333 331 327 326 325 325 325 325 323 319 316 314 312
342 341 341 339 338 339 339 340 340 341 341 341 340 340 339 338 337 337 338 338 339 340 341 343 343 343 344 343 342 340 338 336 335 333 331 330 329 328 326 325 321 317 313 311
336 335 337 338 338 338 339 339 337 338 338 337 337 337 338 339 339 340 340 341 342 343 343 344 345 346 345 345 344 342 340 338 336 334 332 330 328 326 325 323 320 317 314 310
336 335 335 335 338 338 338 337 336 335 337 336 335 337 338 339 340 341 341 342 343 344 345 346 347 347 346 345 343 341 339 337 335 332 330 328 327 325 324 321 319 316 313 310